Vertical_Velocity
-1 -1 -6 -6 -4 18 -3 106 3 7 7 2 -6 2 1 -1 -4 -3 -3 -2 -2 -2 2 0 1 0 2 1 0 2 1 -6 -12 10 2 5 2 -0 6 4 5 -1 -10
12 7 -6 6 69 14 186 10 36 7 15 4 0 1 -0 -1 -1 -1 -1 3 0 0 -2 -2 -3 -3 1 0 -2 1 -1 2 -9 -5 6 6 -1 -2 -1 4 -1 -2 2
4 50 -12 -17 5 3 7 4 5 1 3 0 -3 -2 -1 -4 2 0 5 0 -0 -3 -3 -3 1 -1 -0 -2 -3 -2 -1 1 -1 -11 1 3 1 9 -3 -1 3 4 -5
12 18 15 -14 -10 -3 9 8 4 4 -2 -4 -2 1 1 0 1 1 -2 -3 -2 0 2 -3 -4 -4 -2 -1 -3 -1 -0 -1 -2 -3 -2 -9 0 8 -6 -3 -13 -0 -5
11 11 0 -3 7 4 -1 -2 -5 -5 -2 -0 1 2 -1 1 1 -0 -2 -2 0 -2 -3 -1 1 -1 -4 -4 -5 2 2 2 4 -2 2 -0 1 4 8 8 1 4 2
-6 -7 -5 -0 -1 -1 0 -6 -2 -2 -1 -2 -2 -4 -1 2 -2 -3 -2 -5 -5 -2 1 -4 -2 -4 -2 -1 1 -6 -9 -7 1 -12 -5 -8 -6 -6 -8 -3 -1 1 -4
-2 -5 -2 -1 6 2 -4 -5 -4 -2 -0 -2 -4 -2 3 -1 -3 -4 -3 -0 1 -1 -6 -3 -2 -3 -4 -2 2 2 5 8 -9 -11 -11 9 -9 10 -0 -3 3 3 2
0 4 1 -2 -7 -6 -3 -1 -1 -3 -3 -2 -5 0 -3 -2 -3 -4 -1 -4 -3 -2 -2 -5 -4 -1 -4 -4 2 5 4 9 9 9 1 -4 1 3 1 1 2 4 2
-5 -7 -7 -5 -4 -3 -5 -4 -1 -3 -4 -2 -3 -1 3 3 -2 -4 -2 -6 -3 -1 -2 -0 0 -2 -7 -7 -5 -2 3 4 4 2 2 1 -1 3 1 -5 6 0 5
-3 -3 -4 -1 0 -2 -2 1 2 4 -2 -1 -2 1 1 1 -1 -1 -4 -2 4 1 -5 -1 -3 -2 -2 -2 -5 -11 -7 -2 -1 11 10 9 3 5 1 1 -1 -0 0
-1 -0 -1 -0 -1 -0 -2 -1 1 1 -3 -2 -0 1 1 3 -0 -3 -4 0 -0 0 1 0 -1 -3 -3 -1 -1 -6 -11 -8 -1 -4 -7 -1 1 1 -1 3 1 1 2
0 -2 -0 2 -1 -0 -4 1 -3 1 -4 -3 -5 2 3 6 3 -2 -2 -2 -0 2 3 -0 3 4 2 0 2 -1 -4 -6 -9 -6 -6 -1 -6 -1 0 -0 3 1 1
0 -0 -2 -1 0 1 -2 2 -2 -0 2 2 -3 -3 -4 -0 -2 -0 -0 -3 -1 -1 0 -0 -0 3 2 -1 -4 -4 -4 -3 -3 -0 -3 0 -1 -3 -2 -0 4 3 1
1 -1 -1 -2 -1 -4 -1 0 -2 1 1 1 -2 -2 -2 4 2 -0 -0 -0 1 1 -2 -1 -3 -1 1 -0 -3 0 -3 -5 -6 -1 1 -1 -1 -4 -4 2 -4 3 5
2 2 -2 -4 2 4 2 2 -0 -2 2 -2 -0 -1 -1 0 -1 -1 -1 -4 -2 -0 0 -3 -1 -2 0 1 3 0 1 -1 -1 -0 -3 -3 1 -5 1 0 5 -2 5
4 -1 -2 -8 1 2 2 -5 -0 -0 -0 -1 1 7 1 -1 -4 0 -2 -2 -0 -0 0 -2 -2 -3 -5 -3 -3 -3 -2 -1 -1 -1 -2 -4 0 4 2 -2 2 3 3
1 -1 -3 2 2 5 1 3 2 -2 2 2 1 0 7 8 -7 5 2 -0 -3 -3 -3 -3 -3 -5 -2 -2 -4 -4 -3 -2 -1 -0 2 -1 -2 -2 8 2 1 -0 1
4 3 2 -4 -4 3 3 5 4 5 2 4 -2 1 5 -1 -6 2 2 1 2 -4 -6 -3 -3 -3 -2 -2 -4 -4 -3 -2 -2 -1 1 -0 0 -0 -2 2 2 1 1
2 2 1 3 3 -0 0 1 4 4 2 4 2 1 8 6 2 -1 0 0 1 0 1 3 0 -2 -2 -3 -3 -4 -4 -5 -3 -1 2 1 -0 -1 1 1 0 0 -2
1 3 7 7 5 4 3 3 6 2 2 3 1 6 7 7 4 4 4 3 4 2 0 -3 -3 -3 -3 -3 -2 -3 -2 -2 -2 -2 -1 1 1 1 0 1 2 2 2
11 9 8 5 9 10 6 5 5 1 3 5 3 -1 0 1 -0 -3 -4 -2 -2 -2 -4 -3 -1 -0 -2 -2 -2 -1 -1 -1 -0 0 -0 -1 -0 1 1 -0 0 -0 0
11 10 9 9 9 6 6 7 6 2 3 2 1 3 2 2 1 -1 -0 -0 -1 -1 -1 -1 -0 0 -1 -2 -2 -1 -0 -1 -1 0 -1 0 -0 1 1 2 0 1 0
4 5 6 6 6 4 2 3 2 3 3 3 4 1 -2 -3 -2 -1 -0 0 0 -0 -1 -2 -1 -1 -1 -3 -3 -3 -0 0 0 -0 0 -0 1 1 2 1 1 1 -0
6 5 4 4 2 1 2 3 3 2 3 2 0 -1 -1 -1 0 0 -0 2 1 3 -2 -0 -3 -2 -3 -3 -1 -2 -1 -1 0 -1 0 1 -1 0 2 1 0 -0 0
1 2 2 3 5 5 3 2 1 -0 -1 -0 0 1 3 2 1 2 2 2 3 -1 2 -1 -2 -4 1 -2 0 -1 -1 -0 -1 -0 1 2 -1 0 1 1 -1 -0 1
2 1 0 1 2 1 1 2 1 -1 -1 1 2 2 2 0 2 2 3 2 0 3 -0 -2 -1 -2 -0 -0 -0 0 -0 -1 -1 -1 2 1 1 0 1 -0 1 1 1
Height
5721 5723 5722 5722 5722 5719 5722 5717 5720 5720 5720 5717 5719 5719 5718 5715 5712 5709 5705 5702 5699 5695 5692 5687 5682 5676 5670 5662 5655 5647 5639 5630 5626 5623 5614 5604 5595 5582 5571 5559 5548 5536 5528
5714 5714 5716 5710 5704 5713 5707 5697 5708 5709 5709 5707 5709 5708 5706 5704 5702 5699 5696 5693 5689 5685 5680 5675 5669 5663 5656 5648 5640 5631 5623 5614 5607 5606 5600 5590 5577 5565 5554 5542 5529 5517 5504
5698 5705 5706 5709 5707 5704 5703 5705 5704 5703 5703 5702 5701 5700 5698 5695 5692 5689 5686 5682 5677 5672 5667 5662 5655 5648 5641 5633 5625 5617 5608 5600 5591 5584 5582 5573 5563 5549 5535 5522 5510 5496 5482
5697 5701 5703 5703 5701 5703 5702 5699 5698 5698 5697 5696 5694 5691 5688 5685 5683 5680 5675 5671 5666 5661 5655 5648 5640 5634 5627 5619 5611 5602 5593 5585 5575 5567 5560 5553 5543 5532 5513 5501 5488 5476 5462
5695 5697 5698 5698 5697 5696 5696 5695 5693 5692 5690 5687 5684 5682 5679 5677 5674 5670 5665 5660 5654 5647 5641 5634 5627 5619 5612 5604 5596 5588 5578 5571 5561 5551 5542 5530 5522 5512 5496 5482 5464 5452 5441
5692 5690 5691 5691 5690 5689 5686 5685 5683 5682 5680 5678 5676 5673 5670 5667 5663 5658 5653 5647 5641 5634 5627 5620 5612 5604 5598 5591 5582 5571 5561 5551 5542 5531 5523 5509 5502 5485 5473 5460 5444 5431 5421
5687 5686 5685 5683 5681 5679 5677 5676 5675 5673 5671 5668 5666 5664 5660 5656 5651 5646 5640 5634 5626 5619 5612 5605 5596 5589 5582 5576 5569 5559 5548 5534 5519 5509 5501 5488 5474 5462 5448 5435 5423 5410 5402
5678 5677 5675 5673 5671 5670 5669 5667 5665 5663 5660 5658 5655 5653 5649 5643 5638 5632 5625 5620 5612 5605 5597 5589 5581 5574 5566 5559 5552 5543 5533 5521 5507 5492 5476 5465 5450 5437 5423 5409 5400 5390 5383
5666 5665 5663 5662 5661 5660 5658 5656 5653 5651 5649 5647 5644 5640 5635 5630 5624 5619 5612 5606 5597 5590 5582 5575 5567 5559 5550 5542 5535 5527 5517 5503 5490 5475 5459 5444 5429 5414 5400 5387 5382 5372 5366
5655 5654 5652 5651 5650 5648 5646 5644 5642 5640 5638 5634 5631 5627 5623 5617 5610 5604 5597 5590 5585 5576 5567 5558 5549 5541 5531 5521 5511 5503 5497 5486 5473 5461 5445 5429 5411 5396 5383 5370 5362 5356 5352
5644 5643 5642 5641 5640 5638 5636 5634 5632 5630 5626 5622 5620 5616 5610 5602 5595 5589 5582 5576 5569 5561 5552 5543 5533 5523 5513 5501 5490 5479 5469 5461 5449 5435 5422 5408 5393 5379 5367 5356 5347 5343 5340
5635 5633 5632 5631 5630 5628 5626 5624 5621 5617 5612 5609 5605 5601 5595 5588 5581 5573 5567 5561 5553 5545 5536 5528 5519 5508 5496 5484 5472 5460 5447 5433 5420 5407 5394 5383 5370 5360 5351 5342 5335 5332 5329
5625 5623 5622 5621 5619 5616 5614 5612 5608 5603 5598 5594 5589 5584 5579 5572 5565 5558 5551 5543 5536 5528 5519 5510 5501 5490 5479 5466 5453 5440 5426 5412 5399 5385 5372 5361 5352 5342 5335 5329 5324 5320 5318
5613 5611 5611 5609 5606 5604 5601 5597 5592 5589 5585 5579 5573 5567 5561 5555 5548 5541 5533 5526 5518 5509 5499 5489 5479 5470 5459 5448 5435 5421 5405 5389 5376 5365 5355 5345 5337 5327 5320 5316 5312 5310 5310
5601 5599 5597 5594 5593 5590 5587 5582 5577 5573 5568 5562 5556 5549 5542 5536 5530 5522 5514 5505 5498 5489 5479 5470 5459 5450 5440 5429 5417 5402 5386 5371 5357 5345 5336 5329 5322 5313 5307 5305 5303 5300 5300
5588 5586 5582 5580 5578 5574 5570 5564 5560 5554 5550 5545 5539 5532 5524 5517 5510 5502 5494 5486 5478 5470 5460 5450 5439 5429 5419 5408 5396 5382 5367 5353 5341 5330 5321 5314 5309 5302 5296 5292 5291 5291 5290
5574 5570 5567 5564 5561 5558 5552 5547 5542 5537 5532 5527 5521 5513 5506 5498 5491 5484 5475 5466 5456 5448 5438 5427 5417 5407 5396 5383 5371 5359 5347 5336 5325 5315 5307 5299 5293 5288 5285 5282 5280 5279 5280
5558 5554 5551 5548 5543 5539 5535 5530 5525 5520 5514 5508 5502 5495 5486 5476 5469 5463 5455 5445 5434 5422 5414 5404 5394 5383 5371 5360 5349 5337 5327 5317 5308 5300 5292 5285 5278 5274 5272 5271 5270 5270 5270
5543 5538 5533 5528 5524 5521 5517 5513 5508 5502 5495 5489 5482 5475 5467 5457 5446 5439 5431 5423 5413 5404 5394 5382 5371 5360 5349 5338 5328 5317 5307 5299 5291 5284 5277 5270 5264 5262 5260 5259 5259 5259 5260
5526 5521 5517 5513 5508 5503 5499 5493 5488 5481 5475 5467 5461 5455 5448 5439 5430 5420 5411 5402 5393 5382 5372 5361 5349 5338 5328 5319 5309 5299 5290 5280 5273 5266 5261 5256 5252 5249 5248 5247 5248 5251 5252
5510 5506 5501 5496 5491 5485 5479 5473 5468 5461 5454 5447 5441 5433 5425 5416 5407 5398 5389 5379 5369 5357 5347 5337 5327 5317 5308 5298 5289 5281 5272 5263 5256 5251 5246 5242 5240 5238 5237 5237 5239 5241 5243
5491 5486 5481 5476 5470 5464 5459 5454 5447 5440 5434 5427 5419 5411 5403 5394 5385 5375 5365 5354 5343 5333 5323 5315 5306 5297 5288 5279 5271 5263 5254 5247 5240 5236 5232 5230 5228 5227 5227 5228 5230 5233 5235
5471 5465 5460 5456 5451 5445 5440 5434 5427 5421 5414 5406 5397 5389 5380 5372 5362 5352 5341 5330 5320 5310 5300 5292 5285 5277 5268 5259 5251 5244 5237 5231 5226 5222 5219 5218 5217 5216 5217 5219 5222 5225 5228
5451 5447 5442 5437 5431 5426 5420 5413 5406 5399 5392 5384 5375 5366 5356 5345 5335 5325 5315 5306 5297 5288 5278 5271 5264 5257 5249 5241 5233 5225 5220 5216 5212 5210 5208 5207 5206 5206 5207 5210 5214 5218 5222
5434 5429 5423 5418 5412 5406 5399 5392 5384 5376 5369 5360 5350 5339 5329 5319 5309 5299 5290 5282 5274 5265 5258 5250 5243 5237 5229 5221 5215 5210 5206 5202 5200 5198 5197 5196 5195 5196 5198 5202 5207 5212 5216
5416 5410 5404 5398 5392 5384 5376 5368 5359 5351 5342 5333 5323 5312 5302 5291 5282 5274 5266 5259 5251 5244 5237 5230 5223 5217 5210 5204 5199 5195 5192 5190 5188 5188 5187 5185 5185 5186 5190 5195 5200 5205 5210